OBJECT AD, 59125

Orbit data source: Space-Track

You're viewing an Uncataloged Satellite

Recently launched and/or uncataloged satellites may have evolving metadata. Metadata may include but not limited to: Owner, Maufacturer, Bus, Motor, and Mission.

OBJECT AD, 59125 is a satellite in SSO that was launched on Mon, 04 Mar 2024 UTC via an FALCON 9 launch vehicle from the Air Force Western Test Range (AFWTR). Unknown objects in Earth's orbit typically refer to objects detected orbiting the Earth but have not yet been identified or cataloged. These objects could be anything from previously untracked satellites, spent rocket stages, debris from satellite collisions, or even natural meteoroids temporarily captured by Earth's gravity.

Loading next visibility...
Identifier
59125, 2024-043AD
Orbit
SSO
Country
Flag of TBDTBD
Related business
None
Manufacturer
Space Machines
Mission
Operational Commercial Technology
Bus & Motor
OPTIMUS, Unknown motor
Mass
270 kg wet, 270 kg dry
Launch date (UTC)
2024-03-04 (2 years ago)
Launch vehicle
FALCON 9
Launch site
Air Force Western Test Range (AFWTR)
Object type
Unknown
Shape & HBR
Cyl + 1 Pan, 0.8 m
Radar Cross Section
2.062 m², Medium (>0.1 m² and < 1m²)

Expand to show TLE details & history
Last TLE update: 10 hours ago

TLE from 10 hours ago
0 OBJECT AD
1 59125U 24043AD  25261.93699951  .00009859  00000-0  34813-3 0  9995
2 59125  97.5295  32.4308 0011697 115.3164 244.9288 15.29364926 85700
Epoch: 2025-09-18T22:29Z
TLE epoch observation values (Epoch: 2025-09-18T22:29:16.757Z)
Latitude
-0.00012°
Longitude
57.01956°
Altitude
484.216 km
Speed
7.621 km/s
True Right ascension
02h 09m 43s
True Declination
0° 00' 00"
Sunlit
Object was in full shadow at epoch
Visualization orbit readout
Latitude
Unknown
Longitude
Unknown
Altitude
Unknown
Speed
Unknown
Apparent Right ascension
Unknown
Apparent Declination
Unknown
Sunlit
N/A
Visualization observer readout
Local Sidereal Time
01:02:56
Azimuth
Unknown
Elevation
Unknown
Doppler factor
Unknown
Orbital elements
Apogee altitude
482.684 km
Perigee altitude
466.653 km
Semi-major axis
6,852.805 km
Eccentricity
0.00117
Inclination
97.5295°
RAAN
32.4308°
Arg. of periapsis
115.3164°
True anomaly
244.80747°
Mean anomaly
244.9288°
Eccentric anomaly
244.86813°
Mean motion
3.82596 °/min
Orbital period
94.09 mins
BSTAR
0.00034813
Loading maneuver chart data...
Computing Atmospheric mass density...
Loading historical data...
Loading historical data...
Loading historical data...
Loading historical data...
Loading historical data...
Loading historical data...
Loading historical data...

Documentation

Showing up to 5 results
|